Regional Weather Roundup
Issued by NWS

Home | Current Version | Previous Version | Text Only | Print | Product List | Glossary Off
Versions: 1 2 3 4 5 6 7 8 9 10 11 12 13 14 15 16 17 18 19 20 21 22 23 24 25 26 27 28 29 30 31 32 33 34 35 36 37 38 39 40 41 42 43 44 45 46 47 48 49 50

000
ASUS43 KOAX 030802
RWRNE

WEATHER ROUNDUP FOR NEBRASKA
NATIONAL WEATHER SERVICE OMAHA NE
300 AM CDT MON AUG 03 2015

NOTES: SATELLITE DATA IS BEING USED TO AUGMENT CLOUD COVER ABOVE
       12000 FEET.
       "FAIR" INDICATES FEW OR NO CLOUDS BELOW 12,000 FEET WITH NO
       SIGNIFICANT WEATHER AND/OR OBSTRUCTIONS TO VISIBILITY.

  * THESE STATIONS DO NOT REPORT WEATHER SUCH AS RAIN...SNOW OR FOG.

NEZ001>004-019>022-054>056-030900-
NEBRASKA PANHANDLE

CITY           SKY/WX    TMP DP  RH WIND       PRES   REMARKS
SCOTTSBLUFF    PTCLDY    66  56  70 NE7       30.00S
ALLIANCE       PTCLDY    60  55  83 E9        30.00F
CHADRON        CLEAR     62  56  80 NE6       29.99F
KIMBALL        MOCLDY    62  52  71 S6        30.04F
SIDNEY         MOCLDY    65  55  70 S8        30.03F
$$

NEZ057>060-069>072-079>082-030900-
SOUTHWEST NEBRASKA

CITY           SKY/WX    TMP DP  RH WIND       PRES   REMARKS
NORTH PLATTE   PTCLDY    62  57  83 E7        29.99R
IMPERIAL       PTCLDY    68  54  60 CALM      29.98S
LEXINGTON      PTCLDY    60  57  91 NE6       29.98F
MCCOOK         CLEAR     64  57  78 NE5       29.93S
$$

NEZ005>010-023>029-035>040-094-030900-
NORTH CENTRAL NEBRASKA

CITY           SKY/WX    TMP DP  RH WIND       PRES   REMARKS
AINSWORTH      CLEAR     65  60  82 CALM      30.00F
BROKEN BOW     PTCLDY    66  61  84 NW5       29.99R
ORD            CLEAR     65  61  87 NW3       29.95S
$$

NEZ041-046>049-061>064-073>077-083>087-030900-
SOUTH CENTRAL NEBRASKA

CITY           SKY/WX    TMP DP  RH WIND       PRES   REMARKS
GRAND ISLAND   PTCLDY    65  63  93 N3        29.95S
AURORA         PTCLDY    69  68  99 NE7       29.93S
HASTINGS       PTCLDY    67  64  90 NE6       29.94R
KEARNEY *      PTCLDY    64  57  77 N6        29.96S
YORK           PTCLDY    68  66  94 N8        29.93R
$$

NEZ011>018-030>034-042>045-030900-
NORTHEAST NEBRASKA

CITY           SKY/WX    TMP DP  RH WIND       PRES   REMARKS
NORFOLK        CLEAR     69  61  75 E5        29.95R
BLAIR          CLEAR     70  64  83 NE8       29.93R
COLUMBUS *     CLEAR     66  61  82 CALM      29.93F
TEKAMAH        CLEAR     66  64  93 N5        29.92S
$$

NEZ050>053-065>068-078-088>093-030900-
SOUTHEAST NEBRASKA

CITY           SKY/WX    TMP DP  RH WIND       PRES   REMARKS
LINCOLN        CLEAR     67  64  90 N8        29.90R
OMAHA EPPLEY   MOCLDY    73  67  81 N5        29.91R
BEATRICE       PTCLDY    73  72  96 NE10      29.87F
FALLS CITY     CLEAR     74  68  81 SE8       29.87F
NEBRASKA CITY  CLEAR     72  71  98 NE5       29.88R
$$

NEZ044-045-051>053-067-030900-
OMAHA AREA

CITY           SKY/WX    TMP DP  RH WIND       PRES   REMARKS
OMAHA EPPLEY   MOCLDY    73  67  81 N5        29.91R
BLAIR          CLEAR     70  64  83 NE8       29.93R
WAHOO          FAIR      70  67  92 N8        29.91R
$$



USA.gov is the U.S. government's official web portal to all federal, state and local government web resources and services.